CZ-3C DEB, 40818

Orbit data source: Space-Track

CZ-3C DEB, 40818 is space debris in HEO originally from a launch on Sun, 31 Oct 2010 UTC launched from the Xichang Space Center, China (XSC). Debris objects in space refer to the collection of defunct objects orbiting the Earth. Examples of debris include non-operational satellites, rocket bodies, and fragments generated from explosions, collisions, or faulty payload assembly.

Loading next visibility...
Identifier
40818, 2010-057AK
Orbit
HEO
Country
Flag of CNCN / PRC
Related business
Manufacturer
CALT
Mission
Spacecraft
Bus & Motor
Unknown
Mass
Unknown
Launch date (UTC)
2010-10-31 (15 years ago)
Launch vehicle
Unknown
Launch site
Xichang Space Center, China (XSC)
Object type
Payload
Rocket body
Debris
Shape & HBR
Unknown shape, 0.3 m
Radar Cross Section
Small (<0.1 m²)

Expand to show TLE details & history
Last TLE update: 3 days ago

TLE from 3 days ago
0 CZ-3C DEB
1 40818U 10057AK  25335.91541778  .00000034  00000-0  17220-3 0  9996
2 40818  19.9843 164.9611 7101309  38.0578 355.3475  2.25733103 88528
Epoch: 2025-12-01T21:58Z
TLE epoch observation values (Epoch: 2025-12-01T21:58:12.096Z)
Latitude
-0.00002°
Longitude
124.35927°
Altitude
1,424.584 km
Speed
9.269 km/s
True Right ascension
10h 59m 40s
True Declination
0° 00' 00"
Sunlit
Object was in daylight at epoch
Visualization orbit readout
Latitude
Unknown
Longitude
Unknown
Altitude
Unknown
Speed
Unknown
Apparent Right ascension
Unknown
Apparent Declination
Unknown
Sunlit
N/A
Visualization observer readout
Local Sidereal Time
07:38:05
Azimuth
Unknown
Elevation
Unknown
Doppler factor
Unknown
Orbital elements
Apogee altitude
35,608.36 km
Perigee altitude
738.621 km
Semi-major axis
24,551.628 km
Eccentricity
0.71013
Inclination
19.9843°
RAAN
164.9611°
Arg. of periapsis
38.0578°
True anomaly
323.23433°
Mean anomaly
355.3475°
Eccentric anomaly
344.41843°
Mean motion
0.56419 °/min
Orbital period
638.09 mins
BSTAR
0.0001722
Loading maneuver chart data...
Computing Atmospheric mass density...
Loading historical data...
Loading historical data...
Loading historical data...
Loading historical data...
Loading historical data...
Loading historical data...
Loading historical data...

Documentation

Showing up to 5 results
|